Wetbulb
42.57 42.94 42.81 43.83 43.26 44.33 44.86 46.18 46.91 48.17 48.48 48.13 46.57 46.27 46.41 47.09 47.65 47.69 47.85 46.96 46.25 46.09 46.22 46.36 46.38 45.74 44.49 44.63 45.07 45.53 45.15 45.29 43.56 44.94 45.22 47.05 47.66 47.23 48.21 48.35 48.15 48.09 47.95
43.61 43.17 43.05 44.66 46.38 44.69 45.00 45.35 45.90 45.79 46.34 46.61 45.15 44.48 44.54 45.47 46.55 46.75 46.38 46.13 44.83 44.56 45.30 45.88 45.81 45.27 44.62 44.29 44.56 44.43 44.30 44.57 44.45 42.94 44.51 45.51 46.03 47.19 47.14 46.49 46.49 47.01 46.98
44.16 43.89 45.92 46.06 44.38 43.75 44.31 45.07 45.83 45.63 45.44 45.18 44.05 42.76 42.54 43.30 44.46 46.25 46.62 46.13 44.36 43.71 44.33 45.51 45.59 45.06 44.54 44.30 44.02 43.16 43.21 43.67 43.44 43.07 42.84 45.28 45.37 46.52 46.01 46.24 46.08 46.37 46.69
43.82 44.14 43.65 43.51 43.62 43.60 44.15 44.85 45.61 45.95 45.14 44.86 43.07 42.03 41.84 42.42 44.22 44.79 46.02 46.45 45.03 43.37 43.63 43.67 44.04 45.14 45.01 45.04 45.99 45.15 44.48 43.95 43.80 43.27 43.86 44.46 44.37 45.44 44.30 42.77 43.30 45.27 44.69
43.03 43.15 43.11 44.16 44.65 44.69 44.54 44.87 45.69 46.31 45.27 44.17 42.82 41.89 41.35 42.56 44.13 46.41 45.41 46.34 46.13 44.23 43.78 43.53 43.90 47.07 47.71 47.19 46.41 47.01 45.85 44.47 43.97 43.62 42.86 43.58 44.07 43.47 43.16 43.64 42.08 43.06 44.63
42.51 42.97 43.98 44.48 44.89 44.25 43.63 43.72 44.93 45.74 45.73 43.73 42.32 40.75 40.24 40.73 44.23 46.45 46.63 45.61 45.07 43.19 42.91 43.35 43.35 45.01 44.19 45.39 45.11 46.05 46.82 45.71 44.35 43.25 43.15 41.82 42.83 42.99 42.86 42.34 41.47 40.92 39.33
42.51 43.24 43.95 44.32 44.20 43.95 42.69 41.28 42.58 44.14 44.98 43.52 41.21 39.37 39.23 39.80 42.91 42.95 44.45 41.66 41.68 41.05 41.51 41.31 42.06 42.79 42.99 42.10 43.06 43.84 43.33 43.83 45.87 46.17 43.26 43.18 42.81 43.53 42.72 42.09 42.69 42.32 42.16
42.67 42.99 43.73 43.77 43.44 43.06 40.98 39.52 40.73 43.08 44.21 43.24 40.15 39.14 38.44 39.11 41.51 41.54 42.56 40.50 40.60 40.87 41.02 41.23 41.60 42.15 42.02 42.85 42.59 42.43 42.17 42.43 43.66 44.50 44.68 43.90 44.01 43.84 43.74 42.74 42.44 42.27 44.67
42.55 42.46 43.46 43.33 41.28 39.11 39.47 38.34 39.85 41.21 43.50 42.23 40.65 40.11 38.99 38.99 39.91 40.77 41.00 39.37 40.28 40.75 41.05 41.48 43.26 42.10 41.17 40.99 41.94 40.99 41.37 42.50 42.57 43.69 43.38 42.54 41.54 41.91 42.99 42.25 40.15 40.05 38.83
42.32 42.98 43.73 43.68 40.87 36.21 36.73 37.04 37.98 40.85 42.11 40.30 38.95 38.53 39.02 38.77 39.25 39.81 40.64 39.18 40.33 39.71 41.86 41.97 41.64 41.34 39.86 39.67 41.26 39.68 39.70 40.72 41.43 42.54 42.97 42.61 42.35 42.33 42.09 42.93 40.52 38.38 38.88
42.87 43.91 44.13 42.94 41.36 36.86 36.04 35.86 35.78 37.90 38.74 38.40 38.18 38.36 38.86 38.77 39.43 39.36 40.07 40.16 39.71 39.41 39.84 39.98 40.80 40.13 39.15 38.90 39.32 41.13 40.32 41.52 41.35 41.21 40.98 41.16 41.27 41.33 41.31 42.29 41.91 40.40 39.20
43.69 44.16 44.08 43.08 41.23 40.36 38.02 36.76 36.54 36.09 37.01 37.05 37.23 38.44 38.89 39.53 38.90 39.02 39.22 39.39 41.24 39.52 39.65 39.87 40.51 38.76 38.20 38.05 39.15 38.39 38.40 39.32 39.69 39.41 39.62 39.44 38.49 39.14 40.20 41.98 42.51 42.48 42.67
43.94 43.95 43.63 43.46 42.60 40.73 40.69 40.08 37.34 36.50 36.02 36.77 36.84 37.08 37.80 39.00 39.52 38.39 38.41 38.74 40.36 41.09 41.54 41.03 39.30 37.85 38.05 39.10 38.70 38.36 37.92 38.06 37.57 37.27 37.10 38.00 39.01 40.08 41.31 41.60 42.07 42.67 42.99
43.62 43.48 42.00 42.03 42.61 41.77 39.76 39.65 38.83 38.04 36.54 36.74 36.98 37.24 37.08 37.89 39.10 39.47 39.37 39.53 39.95 41.31 40.73 40.14 39.76 38.32 37.68 38.18 38.20 38.19 37.69 37.70 37.35 35.78 35.98 37.68 39.85 40.43 39.61 40.65 39.36 40.50 40.18
42.32 42.29 41.34 40.93 40.85 41.12 41.16 40.42 40.37 40.73 38.57 37.97 37.11 36.60 36.24 37.28 39.14 37.88 37.11 38.23 39.88 39.74 39.84 39.93 38.69 38.27 38.15 38.17 38.06 37.71 37.21 37.01 36.10 36.40 35.77 36.73 37.95 39.02 39.07 39.66 39.67 39.41 38.49
41.45 40.54 39.98 39.96 39.97 40.48 39.97 40.28 38.85 38.74 38.43 36.62 35.92 36.10 38.00 36.45 36.22 36.60 36.85 36.78 36.81 36.74 39.73 37.75 37.43 37.20 36.96 36.83 36.46 36.24 36.36 35.93 35.54 35.32 37.15 37.65 37.58 37.64 37.78 38.51 39.28 38.61 37.72
41.34 40.23 39.56 39.70 40.28 40.10 39.97 39.40 39.61 41.07 39.50 38.32 37.45 36.88 36.38 36.63 36.67 36.73 36.77 36.56 35.98 37.28 39.08 38.21 37.64 37.31 36.82 37.07 36.68 35.97 35.05 35.47 36.11 36.02 36.23 37.22 37.64 37.61 36.77 37.05 37.64 38.23 37.96
44.57 40.84 41.63 41.61 40.65 39.96 39.76 40.09 39.47 39.37 40.65 42.13 39.98 38.56 37.60 36.96 36.77 37.01 37.46 37.90 41.36 39.92 38.96 38.01 37.55 37.40 37.24 36.93 36.66 35.78 35.45 35.61 34.85 34.74 35.93 37.07 37.30 37.15 36.39 36.57 36.95 37.48 37.70
44.33 44.19 43.97 43.07 41.98 40.98 40.54 40.18 39.81 39.98 39.90 40.14 40.55 40.01 39.12 37.54 37.15 37.13 36.85 41.65 40.43 40.15 39.34 38.57 38.18 37.84 37.49 37.22 36.65 35.87 35.58 34.43 34.39 35.25 35.30 35.85 36.75 36.79 36.39 36.80 37.54 36.08 36.26
44.26 41.62 40.67 41.94 41.07 41.31 41.21 40.76 40.36 40.40 40.07 40.00 40.18 40.56 40.93 40.51 42.19 42.76 41.63 40.93 40.64 40.07 39.18 38.61 38.81 38.18 37.72 36.84 35.99 35.35 35.07 34.76 35.08 34.86 34.80 35.00 36.43 37.74 37.52 37.69 37.87 37.31 37.34
45.18 44.74 40.54 41.09 40.97 40.99 41.12 41.19 40.91 40.22 40.24 40.46 40.59 40.23 33.25 40.39 40.40 41.77 41.71 41.05 40.83 40.38 39.72 39.19 38.43 38.21 37.51 36.81 35.97 35.44 34.54 35.09 35.74 35.67 35.54 35.70 37.18 37.72 38.55 38.27 38.54 38.63 38.42
44.84 45.34 43.82 41.45 41.42 41.43 41.52 41.27 41.28 40.80 40.98 40.84 41.18 40.48 32.68 39.99 41.13 42.64 41.72 41.91 41.13 40.62 39.95 38.87 38.43 37.87 37.09 36.34 35.51 34.58 33.82 34.74 35.50 35.48 35.52 37.16 38.47 38.90 38.63 38.25 38.28 38.44 38.33
45.42 44.32 41.75 41.27 41.33 39.36 41.87 42.26 41.63 41.29 41.17 41.64 41.96 42.19 41.64 41.73 40.92 41.09 41.51 41.65 40.84 40.02 38.83 38.97 38.39 37.40 37.69 37.08 36.56 35.35 34.39 34.79 34.62 35.37 36.32 37.77 39.02 39.02 39.05 38.69 38.87 38.38 38.34
41.31 41.14 41.92 41.74 42.00 42.42 42.21 42.17 42.67 39.87 42.35 42.73 43.18 43.03 43.08 42.88 43.08 41.55 40.79 40.98 41.06 39.54 39.16 38.94 37.72 37.06 37.56 36.80 36.78 36.17 35.88 34.64 34.54 37.34 37.98 39.79 39.80 39.48 39.67 39.30 39.31 39.61 40.20
40.99 42.28 42.16 42.50 42.22 41.48 41.32 41.50 41.45 41.82 42.22 41.84 41.67 41.78 42.66 43.23 43.39 42.82 42.63 41.87 39.79 39.07 38.66 38.18 37.88 37.83 37.21 36.68 36.36 35.13 33.07 32.09 33.64 33.43 38.03 40.86 40.86 40.54 40.20 40.38 41.02 41.39 41.09
42.58 42.77 42.34 41.81 41.14 40.59 40.21 39.44 38.85 38.76 38.35 38.29 38.96 39.31 40.00 40.04 40.17 40.82 41.34 39.60 38.59 38.44 38.87 38.68 38.13 37.67 37.19 36.46 35.27 31.76 32.13 32.27 33.36 32.80 35.87 42.43 41.43 40.87 40.86 41.26 41.79 42.47 43.12
MSLP
1026.11 1025.83 1025.45 1025.14 1024.90 1024.49 1024.21 1023.81 1023.25 1022.66 1022.21 1021.98 1021.77 1021.50 1021.22 1020.96 1020.66 1020.44 1020.29 1020.15 1019.92 1019.73 1019.47 1019.19 1018.88 1018.60 1018.26 1017.91 1017.63 1017.40 1017.15 1017.02 1016.74 1016.23 1015.96 1015.31 1014.94 1014.63 1014.21 1013.88 1013.43 1012.96 1012.43
1026.06 1025.84 1025.56 1025.23 1024.98 1024.63 1024.46 1024.04 1023.60 1023.22 1022.87 1022.53 1022.27 1022.01 1021.70 1021.36 1021.04 1020.82 1020.66 1020.41 1020.15 1019.87 1019.61 1019.28 1019.03 1018.71 1018.41 1018.18 1017.93 1017.66 1017.44 1017.32 1017.09 1016.56 1016.10 1015.50 1015.03 1014.60 1014.33 1013.97 1013.44 1012.94 1012.46
1026.05 1025.86 1025.55 1025.32 1025.14 1024.93 1024.65 1024.23 1023.82 1023.51 1023.19 1022.83 1022.50 1022.24 1021.96 1021.62 1021.23 1020.95 1020.79 1020.54 1020.31 1020.12 1019.88 1019.53 1019.18 1018.78 1018.39 1018.13 1017.86 1017.57 1017.36 1017.04 1016.85 1016.60 1016.14 1015.64 1015.06 1014.59 1014.10 1013.70 1013.28 1012.66 1012.09
1026.18 1026.01 1025.81 1025.56 1025.32 1025.12 1024.74 1024.30 1023.94 1023.58 1023.29 1023.03 1022.78 1022.49 1022.21 1021.84 1021.43 1021.12 1020.83 1020.69 1020.44 1020.22 1019.95 1019.66 1019.33 1018.97 1018.61 1018.21 1017.81 1017.52 1017.27 1016.93 1016.67 1016.44 1016.02 1015.56 1015.17 1014.59 1014.33 1013.76 1013.02 1012.54 1011.87
1026.28 1026.16 1025.96 1025.57 1025.33 1025.05 1024.60 1024.20 1023.83 1023.54 1023.46 1023.28 1023.07 1022.73 1022.37 1021.98 1021.72 1021.24 1021.00 1020.89 1020.66 1020.32 1019.91 1019.57 1019.21 1018.77 1018.29 1017.96 1017.63 1017.20 1016.96 1016.70 1016.43 1016.13 1015.84 1015.55 1015.01 1014.62 1014.23 1013.92 1013.42 1012.57 1011.88
1026.34 1026.19 1025.91 1025.53 1025.29 1025.02 1024.57 1024.16 1023.86 1023.70 1023.53 1023.45 1023.36 1023.17 1022.84 1022.45 1021.94 1021.38 1021.17 1020.96 1020.68 1020.45 1020.04 1019.36 1019.09 1018.54 1018.05 1017.65 1017.31 1017.01 1016.70 1016.41 1016.13 1016.00 1015.71 1015.43 1014.93 1014.64 1014.28 1013.88 1013.39 1012.55 1011.85
1026.40 1026.19 1025.92 1025.59 1025.29 1024.98 1024.73 1024.39 1024.05 1023.89 1023.80 1023.74 1023.69 1023.50 1023.20 1022.78 1022.34 1021.92 1021.40 1021.12 1020.89 1020.57 1020.13 1019.63 1019.03 1018.60 1018.12 1017.58 1016.93 1016.63 1016.25 1016.02 1015.75 1015.56 1015.38 1015.08 1014.79 1014.45 1014.30 1013.76 1013.30 1012.91 1012.24
1026.38 1026.25 1026.01 1025.67 1025.40 1025.11 1024.89 1024.73 1024.42 1024.21 1024.13 1024.06 1023.96 1023.77 1023.57 1023.08 1022.63 1022.21 1021.72 1021.28 1020.91 1020.54 1020.11 1019.69 1019.24 1018.60 1017.99 1017.54 1016.91 1016.30 1015.87 1015.55 1015.25 1015.16 1015.08 1014.87 1014.78 1014.49 1014.16 1013.78 1013.33 1012.82 1012.10
1026.33 1026.25 1026.01 1025.79 1025.64 1025.41 1025.19 1025.01 1024.78 1024.58 1024.37 1024.31 1024.25 1023.99 1023.71 1023.22 1022.81 1022.35 1021.77 1021.31 1020.90 1020.46 1020.01 1019.58 1019.23 1018.68 1018.11 1017.51 1016.91 1016.32 1015.76 1015.36 1015.07 1014.78 1014.74 1014.66 1014.49 1014.08 1013.77 1013.36 1012.80 1012.51 1011.72
1026.30 1026.17 1025.97 1025.81 1025.78 1025.72 1025.52 1025.30 1025.16 1024.92 1024.75 1024.55 1024.28 1024.09 1023.87 1023.44 1022.80 1022.35 1022.04 1021.66 1021.11 1020.74 1020.14 1019.69 1019.25 1018.98 1018.38 1017.84 1017.28 1016.85 1016.30 1015.88 1015.47 1014.79 1014.55 1014.33 1014.17 1013.77 1013.43 1013.21 1012.93 1012.45 1011.79
1026.16 1025.98 1025.83 1025.74 1025.68 1025.56 1025.51 1025.37 1025.32 1025.22 1024.99 1024.69 1024.43 1024.08 1023.78 1023.38 1022.92 1022.55 1022.21 1021.82 1021.54 1021.15 1020.68 1020.22 1019.77 1019.26 1018.73 1018.16 1017.70 1017.30 1016.97 1016.34 1015.65 1015.19 1014.79 1014.42 1013.99 1013.60 1013.09 1012.66 1012.52 1012.32 1011.72
1025.93 1025.75 1025.70 1025.55 1025.44 1025.48 1025.40 1025.37 1025.39 1025.26 1025.13 1024.97 1024.67 1024.16 1023.68 1023.20 1022.89 1022.54 1022.32 1021.97 1021.60 1021.33 1020.96 1020.56 1020.02 1019.41 1018.90 1018.38 1017.89 1017.38 1016.81 1016.27 1015.75 1015.19 1014.73 1014.20 1013.68 1013.28 1012.86 1012.45 1012.03 1011.71 1011.44
1025.69 1025.59 1025.52 1025.36 1025.28 1025.32 1025.35 1025.36 1025.34 1025.24 1025.10 1024.89 1024.68 1024.27 1023.62 1023.16 1022.75 1022.47 1022.03 1021.80 1021.51 1021.23 1020.98 1020.57 1020.00 1019.52 1019.01 1018.46 1017.93 1017.34 1016.79 1016.31 1015.80 1015.20 1014.65 1014.02 1013.54 1013.06 1012.62 1012.14 1011.72 1011.30 1010.91
1025.54 1025.46 1025.37 1025.37 1025.25 1025.14 1025.07 1025.07 1025.12 1024.91 1024.80 1024.70 1024.47 1024.12 1023.61 1023.16 1022.83 1022.48 1022.30 1021.91 1021.50 1021.12 1020.83 1020.46 1020.06 1019.62 1019.14 1018.67 1017.96 1017.32 1016.79 1016.27 1015.74 1015.27 1014.65 1013.99 1013.35 1012.79 1012.42 1012.07 1011.66 1011.18 1010.79
1025.42 1025.34 1025.32 1025.32 1025.21 1025.04 1024.90 1024.70 1024.59 1024.27 1024.22 1024.12 1023.91 1023.87 1023.66 1023.18 1022.58 1022.53 1022.69 1022.16 1021.66 1021.21 1020.81 1020.36 1019.97 1019.48 1018.86 1018.21 1017.70 1017.20 1016.62 1016.08 1015.53 1015.01 1014.47 1013.84 1013.29 1012.74 1012.31 1012.11 1011.63 1011.22 1010.79
1025.29 1025.33 1025.36 1025.24 1025.03 1024.92 1024.71 1024.10 1023.77 1023.48 1023.33 1023.33 1023.21 1023.42 1023.02 1022.76 1022.21 1022.23 1021.99 1021.69 1021.34 1020.96 1020.67 1020.46 1020.08 1019.65 1019.10 1018.51 1017.82 1017.06 1016.47 1015.92 1015.42 1014.85 1014.29 1013.75 1013.27 1012.78 1012.35 1011.98 1011.63 1011.25 1010.81
1025.23 1025.23 1025.18 1025.01 1024.81 1024.67 1024.36 1024.21 1024.00 1023.01 1022.91 1022.71 1022.60 1022.60 1022.57 1022.07 1021.99 1021.69 1021.48 1021.20 1020.99 1020.75 1020.67 1020.39 1020.14 1019.74 1019.20 1018.62 1017.97 1017.29 1016.54 1015.97 1015.41 1014.68 1014.26 1013.66 1013.22 1012.80 1012.37 1011.95 1011.51 1011.19 1010.78
1024.91 1024.91 1024.86 1024.72 1024.60 1024.40 1024.12 1023.83 1023.68 1023.58 1023.18 1022.53 1021.99 1021.85 1021.69 1021.71 1021.45 1021.26 1021.06 1020.85 1020.77 1020.62 1020.59 1020.40 1020.26 1019.92 1019.34 1018.68 1017.95 1017.27 1016.56 1015.89 1015.45 1014.89 1014.27 1013.68 1013.23 1012.77 1012.32 1011.95 1011.54 1011.15 1010.79
1024.65 1024.55 1024.46 1024.24 1024.07 1023.94 1023.68 1023.37 1023.10 1022.91 1022.80 1022.51 1022.07 1021.43 1021.27 1021.07 1021.00 1020.87 1020.76 1020.81 1020.57 1020.45 1020.43 1020.41 1020.28 1019.93 1019.41 1018.72 1018.04 1017.42 1016.74 1016.15 1015.64 1014.94 1014.36 1013.80 1013.26 1012.74 1012.27 1011.93 1011.59 1011.25 1010.95
1024.41 1024.29 1024.12 1023.95 1023.67 1023.31 1023.08 1022.92 1022.81 1022.64 1022.45 1022.20 1021.84 1021.41 1021.06 1021.03 1020.94 1020.98 1021.06 1020.96 1020.58 1020.30 1020.44 1020.33 1020.24 1019.98 1019.51 1018.86 1018.19 1017.57 1016.83 1016.23 1015.59 1014.98 1014.43 1013.91 1013.30 1012.72 1012.33 1012.03 1011.65 1011.34 1011.11
1023.95 1023.83 1023.71 1023.54 1023.35 1023.09 1022.78 1022.56 1022.34 1022.22 1021.97 1021.60 1021.15 1020.93 1020.84 1020.75 1020.55 1020.22 1020.33 1020.37 1020.17 1020.28 1020.45 1020.39 1020.25 1020.02 1019.55 1018.93 1018.33 1017.63 1017.02 1016.34 1015.66 1015.06 1014.50 1013.92 1013.30 1012.75 1012.38 1012.13 1011.88 1011.57 1011.27
1023.54 1023.48 1023.38 1023.19 1022.90 1022.63 1022.44 1022.32 1022.04 1021.93 1021.81 1021.49 1021.01 1020.73 1020.72 1020.77 1020.52 1020.45 1020.49 1020.50 1020.40 1020.43 1020.52 1020.63 1020.43 1020.17 1019.75 1019.18 1018.55 1017.86 1017.20 1016.47 1015.77 1015.19 1014.60 1013.99 1013.38 1012.95 1012.56 1012.20 1011.94 1011.63 1011.32
1023.14 1023.09 1022.96 1022.82 1022.72 1022.57 1022.37 1022.27 1022.08 1022.02 1021.81 1021.52 1021.27 1021.05 1021.00 1020.92 1020.83 1020.73 1020.60 1020.63 1020.68 1020.67 1020.77 1020.81 1020.57 1020.19 1019.68 1019.21 1018.62 1017.98 1017.43 1016.72 1016.01 1015.33 1014.67 1013.96 1013.43 1012.99 1012.60 1012.28 1011.95 1011.60 1011.31
1022.79 1022.76 1022.74 1022.76 1022.79 1022.71 1022.73 1022.79 1022.69 1022.55 1022.30 1022.08 1021.93 1021.85 1021.73 1021.55 1021.33 1021.24 1021.10 1021.05 1021.13 1021.33 1021.30 1021.07 1020.90 1020.53 1019.81 1019.21 1018.58 1017.88 1017.31 1016.72 1015.96 1015.11 1014.44 1013.84 1013.36 1012.92 1012.54 1012.19 1011.84 1011.57 1011.34
1022.78 1022.88 1023.09 1023.30 1023.33 1023.33 1023.40 1023.43 1023.38 1023.28 1023.13 1023.04 1022.93 1022.77 1022.55 1022.31 1022.08 1021.86 1021.62 1021.44 1021.67 1021.72 1021.60 1021.41 1021.05 1020.56 1019.92 1019.30 1018.62 1017.93 1017.25 1016.55 1015.85 1015.27 1014.37 1013.68 1013.34 1012.90 1012.55 1012.20 1011.91 1011.63 1011.37
1023.02 1023.27 1023.58 1023.79 1023.83 1023.94 1024.04 1024.13 1024.17 1024.16 1024.10 1024.06 1023.96 1023.80 1023.56 1023.34 1023.06 1022.78 1022.32 1022.10 1022.15 1022.05 1021.87 1021.56 1021.18 1020.69 1020.05 1019.39 1018.74 1018.10 1017.32 1016.57 1015.84 1015.14 1014.48 1013.69 1013.42 1013.12 1012.72 1012.43 1012.11 1011.81 1011.56
Wind_Speed
4 4 5 5 5 5 5 6 7 7 9 9 8 7 8 7 7 6 6 7 7 6 7 7 8 7 5 5 5 4 4 3 3 2 2 4 4 7 7 8 8 8 8
4 4 5 4 5 6 6 7 6 7 7 7 7 6 6 6 5 6 6 6 7 7 6 7 7 6 6 5 3 4 3 3 2 5 3 3 4 4 5 7 6 6 8
4 5 5 7 6 6 6 6 5 6 6 7 7 7 7 6 6 5 5 6 7 7 7 7 7 8 7 6 5 5 4 3 3 3 4 2 3 2 4 4 5 6 7
5 5 5 5 5 5 5 5 4 4 6 6 6 7 7 6 7 6 6 7 6 6 6 6 6 6 6 6 5 4 4 4 3 2 3 4 2 3 3 4 9 5 7
4 4 5 5 4 5 6 5 4 4 4 5 7 8 8 7 8 8 5 5 6 6 6 6 6 10 12 8 4 5 4 3 3 3 3 3 4 4 6 3 4 8 7
4 4 5 5 5 5 5 6 5 4 4 4 6 7 7 6 15 13 6 5 6 6 8 9 6 10 10 13 12 10 6 4 4 2 2 4 5 5 4 6 6 6 6
3 4 5 5 6 6 5 6 5 5 4 4 5 5 6 7 14 13 11 5 6 6 7 7 8 6 9 8 11 11 10 8 8 4 4 4 4 5 6 7 9 7 7
2 4 5 5 6 6 5 6 5 4 3 3 4 5 5 5 12 13 13 6 5 5 5 6 5 8 7 10 8 8 8 6 5 3 5 6 5 8 6 6 8 8 8
3 4 4 5 5 6 6 6 5 4 3 3 3 5 5 6 11 12 10 6 6 6 6 6 7 9 15 14 8 9 8 6 5 5 4 5 6 10 10 6 7 8 7
3 4 4 4 4 5 4 5 3 3 3 3 4 4 5 6 10 12 10 4 6 6 7 8 13 13 14 14 8 7 8 7 9 10 8 8 10 10 13 5 5 6 6
3 3 4 3 3 4 3 3 3 4 3 4 4 4 4 4 7 11 10 4 4 5 5 7 7 14 13 13 9 8 6 9 10 8 6 6 8 8 8 7 4 5 6
3 4 4 3 2 1 3 3 2 4 4 4 4 4 3 4 7 7 5 6 5 3 5 5 6 11 13 12 9 11 11 10 7 7 7 8 5 6 7 7 7 6 4
3 4 4 4 3 3 2 3 2 2 2 3 3 4 5 5 5 9 10 11 8 2 3 7 10 11 11 9 13 12 10 7 7 8 8 8 6 5 7 7 6 7 6
4 5 4 4 4 3 3 3 3 3 3 3 3 4 4 5 4 4 6 7 8 5 7 6 8 8 8 9 10 9 7 7 8 7 7 7 7 4 5 4 5 5 5
2 3 4 3 3 4 4 4 4 5 5 4 4 3 4 7 5 1 6 7 5 4 5 3 6 8 9 10 9 10 9 8 8 7 7 7 7 6 5 5 4 5 4
3 3 3 3 3 3 4 6 9 12 10 12 12 7 5 12 14 13 12 10 8 3 2 3 6 8 9 10 11 11 9 11 8 7 7 7 6 6 5 5 4 4 5
1 3 2 3 3 3 3 3 6 5 8 12 12 12 14 16 12 12 10 7 3 1 3 4 6 7 9 10 10 10 11 10 11 7 7 7 6 5 6 5 5 4 4
2 3 2 3 3 3 4 4 3 3 5 6 5 5 6 8 10 7 6 2 2 2 2 5 6 8 9 10 11 11 11 10 8 8 7 7 6 5 5 4 5 4 5
3 3 3 3 3 4 4 4 4 3 4 5 6 4 3 5 5 2 0 2 2 4 4 5 6 7 9 10 11 11 11 9 8 8 7 6 6 5 5 4 5 5 5
3 6 4 3 4 5 3 4 4 4 5 5 6 5 4 2 3 4 4 5 4 4 3 4 5 7 9 10 11 10 9 8 8 7 6 6 6 5 4 4 4 4 3
2 3 5 3 3 4 4 4 4 4 4 5 6 4 6 4 3 4 3 4 3 2 3 3 5 7 9 10 10 10 9 8 8 7 6 6 6 5 4 4 4 4 4
2 3 3 4 4 4 3 4 4 4 5 5 5 4 3 2 3 4 5 5 3 1 2 4 5 7 8 9 10 9 8 8 8 7 7 6 5 4 4 4 4 4 3
2 2 3 3 3 3 3 4 5 4 4 5 5 6 5 5 4 4 4 4 2 3 4 4 6 7 8 8 9 8 8 8 8 7 7 6 5 5 4 4 3 3 3
1 2 3 2 2 4 5 5 5 7 7 7 7 7 7 6 7 6 5 5 5 5 5 5 6 8 10 10 9 9 7 8 7 7 8 6 5 5 4 4 4 4 3
1 2 4 4 4 5 5 6 6 7 7 7 7 7 7 7 8 7 6 5 5 4 6 6 5 10 13 15 15 17 13 14 11 10 7 6 6 7 5 4 3 2 3
6 7 5 4 5 6 6 6 7 7 7 7 7 7 8 8 7 8 7 6 4 4 7 6 9 14 16 12 15 17 14 14 12 13 8 6 5 5 5 4 5 3 5
Wind_Direction
5 353 12 8 1 356 5 357 357 1 5 11 7 10 16 18 17 27 26 23 26 17 17 18 16 5 5 6 10 13 18 15 334 304 289 316 313 327 329 331 328 330 329
9 17 17 2 3 11 5 1 3 7 3 3 5 6 8 17 12 25 27 20 24 20 13 13 9 3 4 354 347 349 334 340 302 293 297 279 268 306 300 310 315 320 322
16 10 9 21 14 8 355 352 359 0 5 12 16 14 3 357 349 359 15 22 24 20 10 6 354 357 355 352 344 338 329 323 301 277 295 287 281 296 318 305 307 310 322
18 15 16 12 4 346 331 343 357 359 15 11 10 9 2 347 356 351 353 12 14 8 358 350 337 332 323 334 340 330 327 329 330 304 293 290 279 306 302 316 328 326 322
22 18 357 348 344 334 342 338 343 24 23 21 11 5 2 3 3 340 350 353 347 334 322 325 322 317 329 327 324 323 320 324 327 334 320 306 314 327 333 319 295 317 322
24 3 339 348 346 342 343 339 336 346 11 26 18 5 358 354 355 7 13 348 337 336 329 324 325 320 324 318 309 304 292 285 291 278 283 301 298 312 321 318 316 320 325
17 344 338 343 346 345 343 350 349 340 351 36 22 10 357 345 351 353 355 346 334 331 323 328 334 336 331 320 312 306 292 281 259 260 273 288 297 321 312 306 312 304 298
360 340 343 346 346 337 352 1 354 353 359 33 20 11 352 330 343 344 342 329 330 325 326 332 331 327 334 335 323 318 311 303 296 276 262 292 282 314 295 294 293 292 290
352 346 350 1 357 347 354 351 1 358 13 26 357 345 352 323 332 341 352 349 353 346 347 355 359 350 342 343 338 332 327 330 326 317 314 309 335 339 332 316 322 313 306
335 332 339 355 11 358 347 355 348 2 13 352 343 345 320 314 329 344 353 350 4 356 350 359 1 359 348 352 355 346 340 346 337 337 337 344 344 330 327 308 304 300 300
308 331 3 11 8 21 358 24 5 353 344 359 346 323 318 316 322 334 345 3 3 354 3 356 351 344 348 358 9 12 346 321 332 328 321 322 332 325 320 313 284 277 299
307 336 340 348 334 339 16 9 10 22 12 355 339 318 311 321 329 335 335 1 355 5 354 336 332 343 352 349 352 339 345 349 344 338 324 314 302 308 313 310 290 288 250
325 332 332 317 286 271 300 313 317 8 355 326 336 325 321 332 333 340 351 355 354 355 341 335 343 349 341 342 340 334 335 342 336 330 321 311 297 299 302 309 318 298 297
323 325 335 337 309 288 267 249 260 275 283 284 301 305 311 315 321 334 349 336 337 351 350 341 336 328 317 309 327 336 336 333 332 319 312 310 311 300 314 318 312 314 312
319 327 338 333 329 320 291 263 249 233 214 239 240 254 294 305 292 274 312 312 308 297 308 337 346 346 343 345 342 337 333 334 336 323 314 315 315 317 313 326 309 317 308
11 348 319 313 324 321 320 318 228 246 238 235 238 230 259 236 274 293 302 302 282 270 354 341 337 340 340 339 336 333 333 332 327 319 314 311 317 320 327 315 315 318 316
215 262 301 315 313 309 319 324 315 322 265 255 251 239 233 259 281 282 286 285 5 16 341 327 330 337 334 334 332 331 328 329 322 316 318 314 319 319 325 325 324 312 313
327 263 295 304 297 293 290 295 279 288 310 311 297 259 251 256 264 282 286 259 308 339 312 325 332 332 334 333 332 331 328 328 327 318 317 322 325 322 323 323 323 316 330
317 315 309 300 295 292 290 283 281 283 276 279 302 293 310 294 304 204 334 293 291 310 326 334 336 334 335 334 334 331 326 327 320 322 325 325 324 326 329 327 322 344 337
279 278 292 307 310 310 302 282 286 284 287 286 286 280 292 329 344 348 342 314 302 318 331 333 342 339 336 336 336 331 332 328 327 325 326 324 322 322 335 333 339 340 5
271 294 297 299 296 307 304 289 286 285 284 286 279 280 243 228 265 250 326 286 272 336 331 347 357 344 340 340 339 334 330 326 328 326 327 324 326 333 351 341 350 341 342
290 297 308 312 311 312 308 307 319 317 315 310 319 317 356 277 285 323 338 341 353 4 44 18 4 349 342 340 336 330 324 323 325 328 325 326 333 346 341 329 338 347 338
254 297 309 309 302 324 358 4 359 353 353 4 1 7 11 11 3 7 359 358 19 84 65 30 2 351 349 343 337 330 317 319 315 310 312 322 326 331 329 335 326 306 310
265 276 307 350 38 62 44 30 28 32 30 31 28 27 23 20 23 20 26 31 60 46 31 21 360 352 349 348 341 338 327 323 312 312 315 308 317 320 316 317 317 331 1
309 45 70 75 65 57 45 38 37 32 36 32 27 23 17 18 20 16 19 50 60 41 26 1 356 353 354 348 345 344 334 329 328 323 320 321 334 336 333 335 356 5 9
94 97 92 79 65 55 50 47 46 41 35 27 25 24 22 23 20 17 15 67 51 20 15 7 3 360 355 350 342 335 336 335 335 332 325 341 347 349 348 355 5 5 14